KRAKSAT (44427 NORAD) Tracking and Keplerian Element Data

This shows tracking and keplerian element data for the satellite.

Feedback or suggestion? Click here.




ElementValue
Catalog44427
NameKRAKSAT
Epoch Orbit697
Epoch Day228.93138413
Epoch Year2019
RAAN59.6621
Inclination51.6444
Eccentricity0.0003301
Argument of Perigee253.2846
Mean Anonmoly249.2701
Mean Motion15.51873774
Decay Rate3.146E-05
L11 44427U 98067QM 19228.93138413 .00003146 00000-0 59182-4 0 9998
L22 44427 51.6444 59.6621 0003301 253.2846 249.2701 15.51873774 6978

Live tracking and technical data element details for KRAKSAT (NORAD 44427). KRAKSAT can be tracked NOW for your location showing map with azimuth and elevation plus other details from your city location.

Track the satellite on the map from your city or location and see movement details for azimuth, elevation, latitude, longitude, range, height, and movement on the map or in text.







IsCatalogInMostPopularTable: catalog: 44427, numindb: 9
Update: records affected: 1



GetName: 44427 KRAKSAT

Hit Count: updated at: Wed, 21 Aug 2019 11:59:48 GMT